[[{"header":{"parameterUnit":"m.s-1","parameterCategory":1,"la1":30.2991,"la2":30.254,"lo1":-89.0895,"lo2":-89.0444,"dy":0.0017,"dx":0.0017,"nx":28,"ny":28,"refTime":"2023-10-27T21:00:00:Z","depth":0,"parameterNumber":2,"parameterNumberName":"U-component_of_WINDS"},"data":[0,0,0,0,0,0,0,0,0,0,0,0,0,0,0,0,0,0,0,0,0,0,0,0,0,0,0,0,0,0,0,0,0,0,0,0,0,0,0,0,0,0,0,0,0,0,0,0,0,0,0,0,0,0,0,0,0,0,-4.2849,-4.285,0,-4.2988,-4.2989,-4.2991,-4.297,-4.2967,-4.2965,-4.2963,-4.3103,-4.3108,-4.3114,0,0,0,0,0,0,0,0,0,0,0,0,0,-4.2566,-4.2571,-4.2849,-4.2851,-4.2852,-4.2988,-4.299,-4.2991,-4.297,-4.2967,-4.2964,-4.2962,-4.3101,-4.3108,-4.3115,0,0,0,0,0,0,0,0,0,0,0,0,0,-4.2695,-4.2573,-4.2848,-4.2858,-4.286,-4.2987,-4.299,-4.2992,-4.2971,-4.2967,-4.2964,-4.296,-4.3098,-4.3107,-4.3116,-4.3241,0,0,-4.3143,-4.3147,0,0,0,0,0,0,0,0,-4.2688,-4.2705,-4.2855,-4.2858,-4.286,-4.2958,-4.2941,-4.3075,-4.2972,-4.2929,-4.2963,-4.2959,-4.3057,-4.3069,-4.3103,-4.3248,-4.3254,-4.3144,-4.3149,-4.3153,-4.3155,0,0,0,0,0,0,0,-4.2679,-4.2699,-4.2904,-4.2857,-4.286,-4.2856,-4.287,-4.2966,-4.3011,-4.2932,-4.2931,-4.2948,-4.3058,-4.3094,-4.3106,-4.3256,-4.3143,-4.3151,-4.3157,-4.316,-4.3514,-4.3518,0,0,0,0,0,0,-4.2667,-4.2692,-4.2899,-4.2908,-4.2764,-4.2864,-4.288,-4.293,-4.301,-4.3019,-4.2951,-4.2946,-4.3081,-4.3096,-4.3111,-4.3264,-4.3153,-4.3161,-4.3166,-4.351,-4.3515,-4.352,0,0,0,0,0,0,-4.2661,-4.2686,-4.2894,-4.28,-4.2826,-4.2872,-4.2929,-4.2935,-4.2971,-4.3024,-4.3032,-4.298,-4.3079,-4.3098,-4.321,-4.3269,-4.3165,-4.3173,-4.3505,-4.3512,-4.3517,-4.3572,0,0,0,0,0,0,-4.2653,-4.2684,-4.2731,-4.2801,-4.2831,-4.299,-4.2933,-4.294,-4.2987,-4.2982,-4.3053,-4.3061,-4.3077,-4.3197,-4.3219,-4.3279,-4.318,-4.35,-4.3508,-4.3515,-4.3565,-4.3579,-4.3591,0,0,0,0,0,-4.2643,-4.274,-4.2734,-4.2759,-4.2891,-4.2993,-4.3011,-4.3028,-4.2992,-4.304,-4.3075,-4.3059,-4.326,-4.3208,-4.3233,-4.3297,-4.3496,-4.3506,-4.3515,-4.3559,-4.3576,-4.3591,0,0,0,0,0,0,-4.2674,-4.2749,-4.2743,-4.2865,-4.2924,-4.299,-4.3051,-4.3045,-4.3114,-4.3106,-4.3125,-4.3141,-4.3254,-4.3287,-4.3229,-4.3425,-4.3373,-4.3388,-4.3398,-4.3415,-4.3428,-4.3417,-4.3187,0,0,0,0,0,-4.2695,-4.2772,-4.2834,-4.2936,-4.2965,-4.3004,-4.3049,-4.3058,-4.3118,-4.3142,-4.3184,-4.3244,-4.332,-4.337,-4.3443,-4.3571,-4.3587,-4.3627,-4.3641,-4.3651,-4.3663,-4.3735,-4.3754,-4.355,-4.355,-4.3549,0,0,-4.2739,-4.279,-4.2837,-4.2943,-4.2989,-4.3069,-4.3024,-4.3109,-4.3169,-4.3155,-4.3263,-4.3297,-4.3364,-4.3485,-4.354,-4.3516,-4.3724,-4.3663,-4.3671,-4.3677,-4.3746,-4.3766,-4.3783,-4.3556,-4.3555,-4.3554,0,0,-4.286,-4.2906,-4.2997,-4.3045,-4.3117,-4.3142,-4.3164,-4.3233,-4.3256,-4.3365,-4.3357,-4.3429,-4.356,-4.3609,-4.3651,-4.3796,-4.3785,-4.382,-4.3887,-4.3958,-4.3974,-4.3988,-4.404,-4.4059,-4.3832,-4.3832,-4.3832,0,-4.2905,-4.3024,-4.3044,-4.3132,-4.3179,-4.3174,-4.3266,-4.3312,-4.3403,-4.3437,-4.3409,-4.3576,-4.362,-4.3754,-4.379,-4.3824,-4.3851,-4.381,-4.397,-4.3985,-4.3998,-4.4048,-4.4068,-4.3836,-4.3835,-4.3835,-4.3835,0,-4.3077,-4.3161,-4.3226,-4.3316,-4.3372,-4.3462,-4.3496,-4.355,-4.3556,-4.3585,-4.3698,-4.3752,-4.3838,-4.3871,-4.3876,-4.4006,-4.3989,-4.3966,-4.3914,-4.4021,-4.4069,-4.4088,-4.3841,-4.384,-4.3839,-4.3838,0,0,-4.3216,-4.332,-4.3344,-4.3386,-4.3467,-4.3532,-4.3623,-4.3708,-4.3755,-4.382,-4.3896,-4.401,-4.3991,-4.4039,-4.405,-4.4112,-4.4226,-4.4082,-4.4083,-4.4106,-4.4374,-4.439,-4.4412,-4.422,-4.4224,-4.4227,-4.4368,0,-4.3344,-4.3505,-4.3528,-4.367,-4.3748,-4.3747,-4.3826,-4.3885,-4.3916,-4.3988,-4.4022,-4.4102,-4.407,-4.4099,-4.4161,-4.4198,-4.4279,-4.4189,-4.4291,-4.4295,-4.4273,-4.4436,-4.4453,-4.4583,-4.4387,-4.439,-4.4392,0,-4.3513,-4.3585,-4.3736,-4.381,-4.3843,-4.3914,-4.3996,-4.4065,-4.4133,-4.4151,-4.4208,-4.4213,-4.4308,-4.4255,-4.4388,-4.4326,-4.437,-4.4396,-4.4401,-4.441,-4.4348,-4.4448,-4.4625,-4.4644,-4.4422,-4.4419,-4.4417,0,-4.36,-4.3734,-4.3842,-4.3879,-4.3967,-4.4018,-4.4057,-4.4122,-4.4173,-4.4245,-4.4278,-4.436,-4.4405,-4.4469,-4.4496,-4.4455,-4.4628,-4.4577,-4.4646,-4.4645,-4.468,-4.4677,-4.4865,-4.4711,-4.4711,-4.471,-4.471,0,-4.3739,-4.3831,-4.3883,-4.3949,-4.4053,-4.408,-4.4183,-4.422,-4.4279,-4.4353,-4.4357,-4.4427,-4.446,-4.4535,-4.4558,-4.4665,-4.4685,-4.4703,-4.4708,-4.4702,-4.47,-4.4729,-4.472,-4.4715,-4.4714,-4.4713,-4.4712,0,-4.3851,-4.3889,-4.4007,-4.4083,-4.4105,-4.4178,-4.4244,-4.4309,-4.4341,-4.4436,-4.4459,-4.451,-4.46,-4.4635,-4.4743,-4.4759,-4.4882,-4.488,-4.4859,-4.486,-4.4928,-4.4921,-4.514,-4.5171,-4.4997,-4.4999,-4.5,0,-4.3936,-4.4008,-4.4093,-4.4144,-4.4185,-4.4267,-4.432,-4.4351,-4.4406,-4.4492,-4.4547,-4.4637,-4.4709,-4.4853,-4.4899,-4.4983,-4.4983,-4.5054,-4.4995,-4.4988,-4.4984,-4.4979,-4.4986,-4.5064,-4.5066,-4.5067,-4.5068,0,-4.4084,-4.4101,-4.4177,-4.4263,-4.4327,-4.4395,-4.4461,-4.4503,-4.4544,-4.4606,-4.4699,-4.4756,-4.4869,-4.4958,-4.5046,-4.5087,-4.5085,-4.5088,-4.5108,-4.5102,-4.5087,-4.5096,-4.4888,-4.5081,-4.508,-4.5079,-4.5078,-4.5078,-4.4185,-4.425,-4.4321,-4.4407,-4.4461,-4.4524,-4.459,-4.4633,-4.4711,-4.4806,-4.482,-4.4919,-4.4989,-4.5107,-4.5152,-4.5231,-4.5212,-4.5241,-4.5248,-4.5255,-4.526,-4.5076,-4.5247,-4.5246,-4.5246,-4.5246,-4.5246,0,-4.4333,-4.438,-4.4459,-4.4554,-4.4623,-4.4618,-4.4692,-4.475,-4.4838,-4.4904,-4.4977,-4.5085,-4.5173,-4.5229,-4.5318,-4.537,-4.5372,-4.5392,-4.5388,-4.5398,-4.5271,-4.5244,-4.539,-4.539,-4.539,-4.539,-4.539,-4.539,-4.4418,-4.4527,-4.4553,-4.469,-4.4737,-4.4835,-4.4878,-4.4937,-4.499,-4.5111,-4.5185,-4.5221,-4.5284,-4.5379,-4.546,-4.5474,-4.5506,-4.5528,-4.5541,-4.5421,-4.5406,-4.5392,-4.5367,-4.5535,-4.5536,-4.5661,-4.5662,-4.5663]},{"header":{"parameterUnit":"m.s-1","parameterCategory":1,"la1":30.2991,"la2":30.254,"lo1":-89.0895,"lo2":-89.0444,"dy":0.0017,"dx":0.0017,"nx":28,"ny":28,"refTime":"2023-10-27T21:00:00:Z","depth":0,"parameterNumber":3,"parameterNumberName":"V-component_of_WINDS"},"data":[0,0,0,0,0,0,0,0,0,0,0,0,0,0,0,0,0,0,0,0,0,0,0,0,0,0,0,0,0,0,0,0,0,0,0,0,0,0,0,0,0,0,0,0,0,0,0,0,0,0,0,0,0,0,0,0,0,0,1.7978,1.7979,0,1.8115,1.8117,1.8118,1.8206,1.8206,1.8207,1.8207,1.8347,1.835,1.8354,0,0,0,0,0,0,0,0,0,0,0,0,0,1.7793,1.7796,1.7978,1.7979,1.7981,1.8115,1.8117,1.8119,1.8206,1.8206,1.8207,1.8208,1.8346,1.835,1.8354,0,0,0,0,0,0,0,0,0,0,0,0,0,1.7896,1.7797,1.7977,1.8041,1.8048,1.8114,1.8117,1.8119,1.8206,1.8206,1.8207,1.8208,1.8345,1.835,1.8354,1.8369,0,0,1.8369,1.8371,0,0,0,0,0,0,0,0,1.789,1.7903,1.803,1.8036,1.8044,1.8144,1.8103,1.8203,1.8205,1.8146,1.8207,1.8208,1.8279,1.8289,1.8313,1.8375,1.8381,1.837,1.8373,1.8375,1.8376,0,0,0,0,0,0,0,1.7883,1.7897,1.8032,1.8031,1.804,1.8063,1.8079,1.8122,1.8206,1.8151,1.8158,1.8173,1.8283,1.8308,1.8317,1.8383,1.837,1.8374,1.8377,1.8379,1.8469,1.8469,0,0,0,0,0,0,1.7866,1.7891,1.8028,1.8036,1.7968,1.8066,1.8083,1.8111,1.8206,1.8221,1.8172,1.8176,1.83,1.8311,1.8322,1.8349,1.8375,1.8379,1.8382,1.847,1.8469,1.8468,0,0,0,0,0,0,1.7861,1.7877,1.8022,1.7966,1.7986,1.8068,1.8099,1.8114,1.8139,1.8222,1.8237,1.8182,1.8301,1.8316,1.8358,1.8354,1.8381,1.8386,1.847,1.8469,1.8469,1.8398,0,0,0,0,0,0,1.7856,1.7875,1.788,1.7965,1.7988,1.8054,1.8099,1.8116,1.8147,1.8154,1.8236,1.825,1.8303,1.835,1.8363,1.8362,1.839,1.8471,1.847,1.8469,1.8401,1.8395,1.839,0,0,0,0,0,1.7849,1.7854,1.788,1.7896,1.7997,1.8053,1.8067,1.8128,1.8146,1.8153,1.8208,1.8247,1.8353,1.8354,1.8368,1.8369,1.8471,1.847,1.8469,1.8404,1.8396,1.839,0,0,0,0,0,0,1.7765,1.7866,1.7896,1.7928,1.7982,1.8068,1.8078,1.8117,1.8166,1.817,1.8244,1.8262,1.8297,1.8337,1.8336,1.839,1.8417,1.8419,1.8362,1.8356,1.835,1.834,1.8394,0,0,0,0,0,1.775,1.7788,1.7874,1.7894,1.792,1.7994,1.8021,1.8064,1.8122,1.8145,1.8202,1.8257,1.8304,1.8332,1.8379,1.8408,1.8429,1.8416,1.841,1.8405,1.8406,1.8428,1.8425,1.8465,1.8465,1.8465,0,0,1.772,1.778,1.7799,1.7879,1.7925,1.7964,1.8012,1.805,1.8079,1.8151,1.8195,1.8239,1.8305,1.8342,1.8361,1.8377,1.84,1.8404,1.8399,1.8403,1.8427,1.8423,1.842,1.8464,1.8464,1.8464,0,0,1.7685,1.7733,1.7757,1.7804,1.7874,1.7924,1.793,1.8012,1.8044,1.809,1.8145,1.8182,1.8259,1.8306,1.8339,1.8327,1.8367,1.834,1.8311,1.8332,1.8329,1.8326,1.8324,1.8322,1.8341,1.8341,1.8341,0,1.7638,1.7698,1.7764,1.78,1.7835,1.7903,1.7929,1.7971,1.8052,1.8076,1.8092,1.8194,1.8243,1.8294,1.8291,1.8315,1.8326,1.8331,1.8324,1.8322,1.8321,1.832,1.8319,1.8337,1.8338,1.8338,1.8338,0,1.7639,1.7679,1.769,1.7769,1.7806,1.7836,1.7909,1.7938,1.7979,1.8028,1.8076,1.8138,1.8201,1.8216,1.8255,1.8273,1.8281,1.831,1.8338,1.8312,1.8313,1.8313,1.8332,1.8333,1.8334,1.8335,0,0,1.7551,1.767,1.7673,1.7712,1.7797,1.783,1.7865,1.7927,1.7952,1.8007,1.804,1.8106,1.8135,1.8173,1.8219,1.8237,1.8227,1.8264,1.8267,1.8257,1.8255,1.8233,1.8231,1.8255,1.8255,1.8255,1.825,0,1.753,1.7596,1.7659,1.7703,1.7743,1.7811,1.7842,1.7899,1.7947,1.7989,1.8042,1.8089,1.8121,1.8146,1.8167,1.8224,1.8228,1.8225,1.8287,1.8289,1.8269,1.8231,1.8208,1.82,1.825,1.825,1.825,0,1.7513,1.7567,1.7615,1.7701,1.772,1.7746,1.7811,1.785,1.7917,1.7951,1.7996,1.8045,1.8088,1.8113,1.8174,1.8171,1.8201,1.8233,1.8234,1.8242,1.8268,1.824,1.8198,1.8198,1.8251,1.8251,1.8251,0,1.7447,1.7532,1.7573,1.7604,1.7703,1.7721,1.7764,1.7832,1.7866,1.7923,1.7947,1.8008,1.8041,1.8088,1.8153,1.8164,1.8209,1.8238,1.824,1.8238,1.8245,1.8244,1.8209,1.8263,1.8263,1.8263,1.8263,0,1.7416,1.7444,1.7545,1.757,1.7605,1.7678,1.771,1.7759,1.7819,1.7857,1.7919,1.7953,1.8037,1.8081,1.8133,1.8178,1.8192,1.8222,1.8235,1.8217,1.8213,1.8237,1.824,1.8263,1.8263,1.8263,1.8263,0,1.7347,1.7416,1.7466,1.7558,1.7582,1.7603,1.7682,1.7711,1.7764,1.7811,1.7826,1.7909,1.7966,1.8036,1.8114,1.8149,1.8189,1.8209,1.8166,1.8174,1.8173,1.8173,1.8153,1.8155,1.8205,1.8205,1.8204,0,1.7323,1.7347,1.7442,1.7472,1.7513,1.756,1.7597,1.7671,1.7707,1.7788,1.7807,1.7869,1.7922,1.8009,1.8077,1.8139,1.8161,1.8151,1.8171,1.8153,1.8164,1.8162,1.8166,1.8145,1.8144,1.8143,1.8142,0,1.7275,1.7309,1.7359,1.7423,1.7466,1.7519,1.7576,1.7597,1.7684,1.7722,1.7781,1.7822,1.7904,1.7965,1.8036,1.8082,1.8127,1.8136,1.814,1.8121,1.8096,1.8112,1.8153,1.8136,1.8136,1.8137,1.8137,1.8138,1.7229,1.7254,1.7326,1.7382,1.7433,1.7485,1.7518,1.7576,1.7627,1.7699,1.7741,1.7799,1.7871,1.7971,1.8015,1.8063,1.808,1.8085,1.8086,1.8087,1.8082,1.8089,1.8076,1.8077,1.8077,1.8077,1.8077,0,1.7185,1.7236,1.7286,1.7364,1.7409,1.7449,1.7515,1.755,1.7601,1.7663,1.7715,1.7785,1.7846,1.7921,1.7987,1.8012,1.8035,1.8027,1.8026,1.8037,1.8062,1.8053,1.8008,1.8008,1.8008,1.8008,1.8008,1.8008,1.7167,1.7213,1.7256,1.7329,1.7381,1.7439,1.7473,1.7523,1.7574,1.7649,1.7701,1.775,1.7818,1.7891,1.795,1.7971,1.7993,1.7979,1.8006,1.8028,1.8034,1.804,1.8032,1.7983,1.7983,1.7977,1.7976,1.7976]}]]